Weather History for St. Joseph, MO

Change the Weather History Date:

Monday, January 28, 2013

  Actual Average Record
Temperature  
Mean Temperature 57 °F 28 °F  
Max Temperature 73 °F 38 °F 73 °F (2013)
Min Temperature 41 °F 18 °F -12 °F (1972)
Degree Days  
Heating Degree Days 8 37  
Month to date heating degree days 959 1059  
Since 1 July heating degree days 3055 3272  
Cooling Degree Days 0 0  
Month to date cooling degree days 0 0  
Year to date cooling degree days 0 0  
Growing Degree Days 6 (Base 50)    
Moisture  
Dew Point 47 °F    
Average Humidity 73    
Maximum Humidity 96    
Minimum Humidity 49    
Precipitation  
Precipitation 0.00 in 0.02 in 0.41 in (2006)
Month to date precipitation 0.43 0.49  
Year to date precipitation 0.43 0.49  
Sea Level Pressure  
Sea Level Pressure 29.78 in    
Wind  
Wind Speed 9 mph (ENE)    
Max Wind Speed 25 mph    
Max Gust Speed 31 mph    
Visibility 6 miles    
Events      
T = Trace of Precipitation, MM = Missing Value Source: NWS Daily Summary

Daily Weather History Graph

Daily Weather History Graph

Search for Another Location

Airport:

Trip Planner

Search our weather history database for the weather conditions in past years. The results will help you decide how hot, cold, wet, or windy it might be!

Date:

Astronomy

Jan. 28, 2013 Rise Set
Actual Time 7:30 AM CST 5:34 PM CST
Civil Twilight 7:02 AM CST 6:03 PM CST
Nautical Twilight 6:29 AM CST 6:36 PM CST
Astronomical Twilight 5:57 AM CST 7:08 PM CST
Moon 7:30 PM CST (1/28) 7:57 AM CST (1/28)
Length of Visible Light 11h 01m
Length of Day
10h 03m
Full, 98% of the Moon is Illuminated
Jan 28
Full
Feb 3
Last Quarter
Feb 10
New
Feb 17
First Quarter
Feb 25
Full

Hourly Weather History & Observations

Time (CST) Temp. Windchill Dew Point Humidity Pressure Visibility Wind Dir Wind Speed Gust Speed Precip Events Conditions
12:53 AM 46.9 °F - 43.0 °F 86% 29.85 in 8.0 mi West 5.8 mph - N/A   Overcast
1:19 AM 46.4 °F 44.3 °F 42.8 °F 87% 29.85 in 9.0 mi West 4.6 mph - N/A   Overcast
1:53 AM 45.0 °F - 42.1 °F 90% 29.85 in 7.0 mi Calm Calm - N/A   Overcast
2:53 AM 44.1 °F - 41.0 °F 89% 29.86 in 7.0 mi Calm Calm - N/A   Overcast
3:53 AM 43.0 °F 41.3 °F 41.0 °F 93% 29.86 in 5.0 mi North 3.5 mph - N/A   Overcast
4:53 AM 43.0 °F 41.3 °F 41.0 °F 93% 29.86 in 4.0 mi North 3.5 mph - N/A   Overcast
5:17 AM 42.8 °F 39.3 °F 39.2 °F 87% 29.86 in 2.5 mi North 5.8 mph - N/A   Overcast
5:53 AM 42.1 °F 38.4 °F 39.9 °F 92% 29.86 in 2.0 mi North 5.8 mph - N/A   Overcast
6:01 AM 41.0 °F 37.1 °F 39.2 °F 93% 29.86 in 2.0 mi North 5.8 mph - N/A   Overcast
6:18 AM 41.0 °F 37.1 °F 39.2 °F 93% 29.86 in 2.0 mi North 5.8 mph - N/A   Overcast
6:53 AM 41.0 °F 37.1 °F 39.9 °F 96% 29.88 in 2.0 mi North 5.8 mph - N/A   Overcast
7:21 AM 41.0 °F 37.1 °F 39.2 °F 93% 29.86 in 2.5 mi North 5.8 mph - N/A   Overcast
7:38 AM 41.0 °F 39.0 °F 39.2 °F 93% 29.87 in 3.0 mi North 3.5 mph - N/A   Overcast
7:53 AM 41.0 °F 38.0 °F 39.0 °F 93% 29.88 in 2.5 mi North 4.6 mph - N/A   Overcast
8:19 AM 41.0 °F - 39.2 °F 93% 29.87 in 2.5 mi Calm Calm - N/A   Overcast
8:40 AM 42.8 °F 40.1 °F 39.2 °F 87% 29.87 in 3.0 mi North 4.6 mph - N/A   Overcast
8:53 AM 43.0 °F 40.3 °F 41.0 °F 93% 29.87 in 3.0 mi North 4.6 mph - N/A   Overcast
9:53 AM 46.0 °F 43.9 °F 43.0 °F 89% 29.86 in 4.0 mi ENE 4.6 mph - N/A   Overcast
10:53 AM 48.9 °F - 46.0 °F 90% 29.85 in 4.0 mi East 3.5 mph - N/A   Overcast
11:28 AM 51.8 °F - 46.4 °F 82% 29.83 in 5.0 mi East 5.8 mph - N/A   Mostly Cloudy
11:49 AM 53.6 °F - 48.2 °F 82% 29.82 in 5.0 mi East 5.8 mph - N/A   Haze
11:53 AM 53.1 °F - 48.9 °F 86% 29.82 in 5.0 mi East 4.6 mph - N/A   Partly Cloudy
12:53 PM 62.1 °F - 54.0 °F 75% 29.76 in 7.0 mi Calm Calm - N/A   Partly Cloudy
1:53 PM 70.0 °F - 54.0 °F 57% 29.71 in 10.0 mi South 16.1 mph - N/A   Clear
2:53 PM 71.1 °F - 53.1 °F 53% 29.68 in 10.0 mi South 12.7 mph 21.9 mph N/A   Clear
3:53 PM 72.0 °F - 51.1 °F 48% 29.67 in 10.0 mi SSW 17.3 mph 25.3 mph N/A   Clear
4:53 PM 69.1 °F - 53.1 °F 57% 29.66 in 10.0 mi South 13.8 mph - N/A   Clear
5:53 PM 64.9 °F - 54.0 °F 68% 29.65 in 10.0 mi South 9.2 mph - N/A   Mostly Cloudy
6:53 PM 66.0 °F - 55.9 °F 70% 29.65 in 10.0 mi South 12.7 mph - N/A   Scattered Clouds
7:53 PM 66.9 °F - 57.0 °F 70% 29.64 in 10.0 mi South 15.0 mph - N/A   Mostly Cloudy
8:53 PM 66.9 °F - 57.0 °F 70% 29.64 in 10.0 mi South 19.6 mph 25.3 mph N/A   Mostly Cloudy
9:53 PM 66.9 °F - 57.9 °F 73% 29.63 in 10.0 mi South 20.7 mph 28.8 mph N/A   Mostly Cloudy
10:53 PM 64.9 °F - 57.9 °F 78% 29.62 in 10.0 mi South 19.6 mph 26.5 mph N/A   Clear
11:35 PM 66.2 °F - 57.2 °F 73% 29.62 in 10.0 mi SSW 18.4 mph 25.3 mph N/A   Mostly Cloudy
11:53 PM 66.0 °F - 59.0 °F 78% 29.61 in 10.0 mi South 16.1 mph 23.0 mph N/A   Overcast